Temperature
9 7 7 7 8 7 7 8 8 8 6 6 4 3 2 0 -2 -3 -5 -6 -7 -8 -9 -10 -10 -10 -11 -11 -12 -12 -13 -13 -13 -13 -14 -14 -14 -14 -14 -14 -14 -13 -13 -12
9 6 6 6 7 6 6 6 6 6 6 5 3 3 2 -1 -3 -5 -6 -7 -8 -9 -9 -10 -10 -10 -10 -11 -11 -12 -13 -13 -13 -13 -14 -14 -14 -14 -14 -14 -14 -13 -13 -13
11 8 7 9 8 6 6 6 6 5 6 4 3 2 0 -3 -5 -6 -7 -8 -8 -9 -9 -10 -9 -9 -10 -11 -11 -12 -12 -13 -13 -13 -14 -14 -14 -14 -15 -14 -14 -14 -14 -13
9 9 9 9 5 5 5 5 5 4 4 3 2 0 -3 -5 -6 -7 -8 -8 -9 -8 -9 -9 -9 -9 -10 -10 -11 -12 -12 -13 -13 -14 -14 -14 -15 -15 -15 -15 -15 -14 -14 -13
7 9 11 7 5 4 5 5 4 4 3 2 1 -0 -3 -5 -7 -8 -8 -8 -8 -8 -8 -9 -9 -10 -10 -11 -12 -12 -13 -13 -14 -14 -15 -15 -15 -14 -14 -15 -14 -14 -14 -13
5 8 11 9 5 3 4 5 3 2 2 1 -0 1 -1 -6 -7 -7 -7 -7 -7 -8 -9 -9 -9 -10 -10 -10 -11 -12 -13 -13 -14 -15 -15 -15 -15 -15 -15 -14 -14 -14 -14 -13
6 7 10 6 3 3 5 6 3 2 1 -0 -1 -2 -5 -6 -7 -7 -7 -7 -7 -8 -8 -9 -9 -10 -10 -10 -11 -12 -12 -13 -14 -14 -15 -15 -15 -15 -15 -15 -14 -14 -14 -13
6 7 8 3 2 5 6 2 2 1 -1 -2 -3 -5 -6 -6 -6 -6 -6 -7 -7 -7 -8 -9 -9 -10 -10 -11 -11 -11 -12 -13 -13 -14 -14 -15 -15 -15 -15 -15 -14 -14 -14 -13
8 9 5 3 3 3 2 2 1 -0 -1 -3 -4 -5 -6 -6 -6 -6 -7 -7 -7 -7 -8 -9 -9 -10 -10 -11 -11 -11 -12 -13 -13 -14 -14 -14 -14 -14 -14 -14 -14 -14 -14 -13
6 6 3 2 1 2 2 1 1 -1 -2 -3 -4 -5 -5 -6 -6 -6 -7 -7 -7 -8 -8 -9 -9 -10 -10 -11 -11 -11 -12 -13 -14 -14 -14 -14 -14 -14 -14 -14 -14 -13 -13 -13
5 4 1 1 1 1 1 1 0 -1 -3 -4 -4 -5 -5 -6 -6 -6 -7 -7 -7 -8 -8 -9 -9 -9 -10 -10 -11 -12 -13 -13 -14 -14 -14 -14 -14 -14 -14 -14 -14 -14 -14 -14
8 5 4 2 1 2 1 1 -1 -2 -3 -4 -4 -5 -6 -6 -6 -6 -6 -7 -7 -8 -8 -9 -9 -9 -9 -10 -11 -12 -13 -13 -14 -13 -14 -14 -14 -14 -14 -14 -14 -15 -15 -14
4 4 3 3 2 1 1 0 -1 -3 -3 -4 -5 -5 -6 -6 -6 -6 -6 -7 -7 -8 -8 -9 -9 -9 -9 -10 -11 -12 -12 -13 -13 -13 -14 -14 -14 -14 -14 -14 -15 -15 -15 -15
4 4 2 2 2 1 0 -1 -2 -3 -4 -4 -5 -5 -6 -6 -6 -6 -6 -7 -7 -8 -8 -8 -8 -9 -9 -10 -11 -11 -12 -12 -13 -14 -14 -14 -14 -14 -14 -14 -14 -15 -15 -15
3 3 3 2 1 0 -0 -2 -3 -3 -4 -5 -5 -5 -6 -6 -6 -6 -6 -7 -7 -7 -8 -8 -8 -9 -9 -9 -10 -11 -12 -12 -13 -13 -14 -14 -14 -15 -15 -14 -15 -15 -15 -15
2 2 2 2 1 0 -1 -2 -3 -3 -4 -5 -5 -5 -5 -6 -6 -6 -6 -6 -7 -7 -7 -8 -8 -9 -9 -9 -10 -11 -11 -11 -13 -13 -13 -14 -14 -14 -15 -15 -15 -15 -15 -15
2 1 1 1 1 0 -1 -2 -3 -3 -4 -5 -5 -5 -5 -6 -6 -6 -6 -6 -7 -7 -7 -8 -8 -8 -9 -9 -10 -10 -10 -11 -12 -13 -13 -13 -14 -14 -15 -15 -15 -15 -15 -15
4 4 4 3 2 1 -1 -2 -3 -3 -4 -5 -5 -5 -5 -5 -5 -5 -5 -6 -6 -6 -7 -7 -8 -8 -8 -9 -9 -9 -10 -10 -11 -12 -13 -13 -13 -13 -14 -15 -15 -15 -15 -16
3 3 2 1 1 0 -1 -2 -3 -4 -4 -5 -5 -5 -5 -5 -5 -5 -5 -5 -6 -6 -6 -7 -7 -8 -8 -9 -9 -9 -9 -9 -10 -11 -12 -12 -13 -13 -13 -14 -14 -15 -15 -15
2 2 1 1 1 -0 -1 -2 -3 -4 -4 -5 -5 -5 -5 -5 -5 -6 -6 -6 -6 -6 -6 -7 -7 -7 -8 -9 -9 -9 -9 -9 -9 -10 -11 -12 -12 -12 -13 -13 -13 -14 -14 -14
1 1 1 1 0 -1 -2 -2 -3 -4 -4 -5 -5 -5 -5 -5 -5 -5 -5 -5 -6 -6 -6 -7 -7 -7 -8 -9 -9 -9 -9 -9 -9 -10 -10 -11 -11 -11 -12 -12 -13 -13 -13 -14
1 1 1 0 -0 -1 -2 -3 -3 -4 -4 -5 -5 -5 -5 -5 -5 -5 -5 -5 -5 -5 -6 -6 -6 -7 -8 -8 -8 -8 -9 -9 -9 -9 -10 -10 -10 -10 -11 -11 -12 -12 -12 -13
1 1 1 0 -1 -1 -2 -3 -4 -4 -4 -5 -5 -5 -5 -5 -5 -5 -5 -5 -5 -5 -6 -6 -6 -7 -7 -7 -8 -8 -8 -8 -9 -9 -9 -9 -10 -10 -10 -10 -10 -11 -11 -11
1 1 0 -1 -1 -2 -2 -3 -4 -4 -5 -5 -5 -5 -5 -5 -5 -5 -5 -5 -5 -5 -6 -6 -6 -6 -7 -7 -7 -7 -8 -8 -8 -9 -9 -9 -9 -10 -10 -10 -10 -10 -10 -10
1 1 -0 -1 -1 -2 -2 -3 -4 -4 -5 -5 -5 -5 -5 -5 -5 -5 -5 -5 -5 -6 -6 -6 -6 -6 -6 -6 -7 -7 -7 -8 -8 -8 -8 -9 -9 -10 -10 -10 -10 -10 -10 -10
1 1 0 -0 -1 -2 -3 -3 -3 -4 -5 -5 -5 -5 -5 -5 -5 -5 -5 -5 -6 -6 -6 -6 -6 -6 -6 -6 -6 -7 -7 -7 -8 -8 -8 -8 -8 -9 -10 -10 -10 -10 -10 -10
0 -0 -1 -2 -2 -3 -3 -3 -3 -4 -4 -5 -5 -5 -5 -5 -5 -6 -6 -6 -6 -6 -6 -6 -6 -6 -6 -6 -6 -7 -7 -7 -7 -7 -8 -8 -8 -8 -9 -10 -10 -10 -10 -10
Wind_Speed
6 3 4 7 9 9 10 9 8 7 7 10 7 11 13 13 10 12 14 14 14 15 15 15 16 15 15 16 16 16 16 17 17 17 18 18 18 19 19 19 19 19 19 20
4 2 5 8 10 10 10 9 10 10 10 2 8 11 14 11 9 12 14 14 14 15 16 16 16 16 16 16 16 16 16 16 16 17 17 18 18 18 19 19 19 19 19 20
4 4 7 8 6 9 6 7 6 7 5 5 10 13 13 7 8 12 14 14 15 15 15 15 16 15 16 16 16 16 16 16 16 17 17 18 18 17 18 18 18 18 18 19
5 6 6 2 2 5 6 6 7 6 5 5 9 10 4 3 8 12 12 13 14 13 14 15 14 15 15 16 16 16 16 16 16 17 17 18 18 17 17 16 16 16 17 19
2 5 9 2 5 5 5 5 6 5 3 6 8 9 2 1 7 9 10 11 12 13 14 14 14 15 16 16 16 16 17 17 17 17 17 18 18 17 16 16 15 16 16 17
2 4 6 1 6 5 3 4 7 4 4 6 7 8 4 3 6 8 10 10 11 13 13 13 14 15 16 17 17 17 18 18 18 18 17 17 17 17 16 15 15 15 15 15
6 6 8 5 8 7 3 2 8 4 2 3 3 3 3 4 6 8 9 11 12 12 12 12 13 15 16 17 17 18 19 19 18 18 17 16 15 15 15 14 14 14 15 15
5 6 6 11 10 7 1 7 6 3 2 1 1 1 2 4 7 9 10 11 12 12 13 13 13 14 16 17 18 18 18 18 18 17 16 14 15 14 14 13 13 13 13 13
9 4 3 11 6 4 7 6 5 4 4 4 3 2 2 4 6 8 10 10 11 12 14 14 14 14 16 17 18 18 18 18 17 17 16 15 15 14 13 12 11 11 10 11
7 7 6 9 7 7 6 6 7 7 7 6 5 3 1 3 6 7 9 10 11 12 14 14 15 15 15 16 17 18 18 17 16 16 16 15 13 12 12 11 11 11 8 8
8 4 5 9 10 9 8 10 10 9 8 7 6 4 0 3 5 7 8 9 10 11 13 15 15 16 16 16 17 18 18 16 16 15 15 14 14 12 13 11 12 12 9 8
6 8 8 9 14 13 12 11 11 10 9 7 5 4 1 3 4 6 8 9 10 11 13 14 15 15 16 17 17 17 16 16 14 14 14 13 13 13 15 15 16 15 13 11
3 6 6 11 13 11 10 11 10 9 9 8 5 3 1 2 4 6 8 9 10 11 12 13 14 15 16 16 17 17 17 15 14 14 14 14 13 13 12 13 14 12 12 12
9 10 8 9 9 10 11 12 11 9 8 7 5 3 1 3 4 6 7 9 10 11 11 12 13 15 16 16 17 16 15 15 16 14 14 13 13 12 11 11 10 8 9 10
10 4 9 12 13 12 12 12 11 9 8 7 4 3 2 3 4 6 7 8 9 9 10 11 13 15 16 16 16 16 13 13 14 13 13 13 13 12 11 11 9 7 6 6
11 10 14 15 14 13 13 12 10 10 9 7 5 4 3 3 5 6 6 7 8 9 10 11 12 15 16 15 15 13 12 17 17 14 12 12 12 12 11 11 9 8 7 6
17 13 12 13 14 14 13 11 10 11 9 8 6 4 3 3 3 5 6 7 7 7 8 10 12 14 16 15 14 11 10 13 18 14 12 12 11 11 11 11 10 8 7 7
18 16 16 17 16 15 13 11 11 11 9 7 6 4 3 1 4 6 8 8 7 6 8 11 13 15 14 14 12 9 9 10 11 12 12 12 11 10 10 10 10 9 7 7
13 14 13 13 14 15 14 13 12 10 9 8 7 5 2 1 3 6 7 7 7 7 10 12 17 14 12 15 15 8 9 10 11 11 11 13 12 10 9 9 9 9 8 7
12 13 13 13 13 12 13 12 12 10 9 8 7 5 3 1 3 5 5 4 3 5 10 12 12 10 11 13 14 8 9 10 11 11 11 11 11 10 9 9 9 9 8 7
15 14 14 14 13 12 13 14 13 12 10 8 7 5 3 2 3 4 4 3 4 8 10 11 9 10 11 12 11 8 9 10 11 11 11 11 10 10 10 9 9 8 8 8
15 15 15 14 14 12 11 12 11 11 10 8 7 5 3 2 2 3 3 3 6 11 9 6 8 13 15 12 7 8 9 10 10 11 11 11 11 11 10 10 9 9 8 8
14 14 15 14 14 13 12 11 11 11 10 9 8 7 5 2 2 2 3 4 6 10 7 6 12 16 15 9 7 8 9 10 11 12 12 12 12 12 11 11 10 9 9 9
14 14 13 13 13 13 13 11 10 8 8 7 6 5 4 2 2 3 3 7 9 9 6 8 12 14 12 7 7 8 8 10 11 12 12 13 13 13 13 12 11 11 10 11
15 14 14 15 14 12 12 12 10 8 8 6 7 7 5 4 3 3 4 5 7 7 5 7 10 11 8 7 7 8 8 9 11 11 12 13 13 14 14 14 14 13 12 11
13 13 12 13 11 10 11 11 10 9 9 8 7 6 5 4 4 3 3 4 5 5 4 5 6 7 7 7 8 8 8 9 10 10 12 13 14 15 15 16 18 16 15 13
12 11 10 9 9 10 11 11 11 11 10 9 7 7 6 5 4 3 2 2 2 3 3 4 5 6 6 7 8 8 9 10 11 12 13 13 13 14 15 18 17 18 19 19
Wind_Direction
274 266 262 262 253 230 228 247 266 289 293 318 341 339 339 344 346 345 344 343 343 341 340 338 337 335 335 334 335 335 335 336 336 335 335 335 334 337 338 338 338 338 337 336
271 225 277 269 252 238 239 244 252 273 291 346 331 331 337 346 346 341 341 341 341 339 336 335 334 332 331 329 331 331 331 330 330 332 332 333 332 336 338 337 337 338 337 337
281 307 302 275 236 208 210 215 233 266 302 328 324 334 338 345 343 339 338 338 337 334 332 330 329 328 325 326 325 325 326 325 326 327 328 329 330 334 336 335 335 336 335 336
298 317 287 78 81 197 214 228 225 250 277 309 323 328 350 11 342 338 338 333 330 328 326 325 324 324 322 323 321 322 322 322 323 324 323 324 328 329 333 334 331 332 334 337
278 285 275 169 175 178 212 246 202 213 268 317 329 305 199 66 345 336 333 328 325 323 322 322 324 325 323 322 324 324 322 322 322 321 320 321 322 325 332 332 330 331 333 337
208 266 276 116 150 154 194 249 174 203 287 320 326 323 7 29 342 336 331 328 325 323 323 325 327 326 324 325 327 327 325 323 322 322 323 322 320 325 328 328 331 332 333 338
222 244 273 134 145 157 221 20 151 199 273 313 319 330 7 354 345 338 332 331 329 326 327 329 328 327 326 327 329 327 324 322 324 326 326 322 323 324 324 326 329 332 335 340
200 230 262 147 157 194 152 121 157 173 155 145 101 83 17 357 344 337 333 333 332 329 328 330 332 332 328 329 329 326 325 326 329 329 327 325 327 327 326 327 328 332 335 341
208 233 88 169 176 149 136 150 155 149 135 133 137 103 26 348 335 331 331 331 331 328 327 332 337 336 331 330 330 328 328 330 330 329 329 331 332 332 331 329 326 324 329 339
253 251 204 185 160 146 144 135 126 126 130 134 132 112 31 336 330 331 332 332 331 330 332 335 338 337 334 332 331 330 331 331 332 331 332 335 335 335 333 329 325 323 333 342
245 231 172 185 178 157 132 126 124 121 125 130 130 124 79 317 324 329 328 329 330 332 331 332 334 336 337 336 335 334 333 334 334 335 338 339 342 341 340 340 344 352 355 346
224 189 175 177 169 154 145 145 141 136 133 125 126 136 197 305 318 324 327 329 330 332 332 332 333 336 339 340 339 337 338 340 339 341 344 345 345 344 348 351 353 360 0 357
130 127 121 129 140 146 143 141 143 144 143 140 137 146 252 306 318 326 329 333 331 329 328 329 334 338 342 342 339 341 343 342 341 344 346 346 345 343 342 346 355 5 6 2
140 126 129 144 145 140 134 131 128 124 129 138 144 152 255 298 314 326 330 326 323 323 327 333 336 341 343 341 340 344 346 346 348 347 348 348 348 346 345 344 347 358 5 5
162 142 140 134 128 128 131 135 137 139 144 147 153 175 241 291 314 319 321 323 323 328 336 338 339 341 343 342 342 344 349 350 350 351 353 353 354 353 352 352 353 356 359 5
145 122 129 138 144 147 150 156 160 160 162 165 177 198 239 279 297 309 323 331 329 329 331 333 336 338 340 342 341 345 348 352 357 356 357 358 359 358 358 358 360 2 3 359
148 150 154 157 162 166 171 174 168 162 164 172 182 198 238 283 309 331 336 330 315 308 321 336 336 334 341 343 342 344 344 349 357 359 1 1 1 1 1 3 5 5 3 356
175 169 170 169 168 169 171 167 160 158 164 171 171 190 211 314 341 330 326 324 323 336 353 349 335 339 342 343 344 341 342 348 354 358 359 0 1 359 0 2 3 4 1 357
163 159 158 160 162 162 162 161 157 155 156 162 175 184 191 283 316 317 320 325 336 347 344 334 337 342 340 344 348 338 340 346 350 354 357 357 357 357 356 356 355 355 353 350
150 146 143 144 147 151 154 152 150 153 160 166 173 182 195 252 310 315 311 303 320 314 306 324 338 337 338 344 347 340 341 344 346 348 350 352 352 351 349 346 344 342 342 338
148 145 144 145 147 150 152 153 156 160 165 174 183 187 193 251 294 304 304 333 345 325 328 343 339 334 344 348 344 341 342 343 344 345 345 344 342 341 339 336 332 328 326 322
152 151 151 149 148 150 154 157 159 159 164 176 187 192 206 239 295 303 267 289 319 327 339 340 334 344 354 350 342 341 342 343 344 344 344 340 337 333 329 325 319 315 311 307
156 155 154 156 155 151 152 160 164 166 173 183 189 194 197 218 287 308 319 321 322 329 343 337 341 350 355 351 343 341 342 344 344 345 345 341 338 334 327 321 314 307 301 297
154 154 152 146 143 149 161 170 169 172 178 187 197 202 203 213 235 239 278 308 323 331 338 339 348 354 355 351 345 343 343 343 343 344 344 342 342 340 338 332 324 315 306 298
153 149 148 153 161 170 169 163 165 171 181 196 208 211 214 220 237 279 300 308 321 332 334 339 352 355 355 347 345 342 341 340 344 344 344 343 343 345 346 346 344 336 326 316
156 162 168 174 171 165 164 168 176 181 185 194 203 206 205 208 228 257 283 302 315 329 336 338 343 347 348 345 343 341 339 339 341 342 342 342 342 345 347 349 349 351 347 341
153 154 156 164 170 171 170 175 180 184 188 192 193 194 194 196 207 228 259 291 318 330 336 343 345 344 343 343 341 340 339 341 342 343 343 341 341 342 345 349 351 351 353 352
Height
1607 1612 1612 1608 1607 1610 1610 1605 1603 1597 1604 1605 1609 1610 1608 1606 1604 1602 1598 1593 1588 1582 1576 1569 1562 1556 1549 1542 1536 1529 1523 1517 1510 1504 1497 1490 1484 1478 1472 1465 1458 1452 1445 1439
1604 1611 1611 1607 1604 1606 1607 1607 1606 1605 1605 1608 1609 1608 1606 1605 1603 1600 1596 1591 1586 1580 1574 1567 1560 1553 1547 1540 1534 1528 1522 1515 1508 1502 1495 1489 1483 1477 1471 1464 1458 1451 1445 1439
1597 1604 1604 1591 1595 1601 1603 1604 1604 1603 1604 1608 1607 1606 1605 1604 1602 1599 1595 1590 1584 1578 1572 1565 1559 1552 1545 1539 1532 1526 1520 1513 1506 1500 1493 1487 1482 1476 1469 1463 1457 1450 1445 1439
1603 1599 1595 1590 1602 1601 1602 1603 1604 1605 1606 1607 1607 1605 1603 1602 1600 1597 1593 1587 1582 1576 1570 1564 1557 1551 1544 1538 1531 1524 1518 1511 1504 1497 1491 1485 1480 1474 1468 1462 1456 1451 1445 1439
1610 1599 1584 1595 1600 1601 1601 1599 1603 1604 1605 1605 1605 1602 1601 1600 1598 1595 1591 1586 1580 1575 1568 1562 1556 1550 1543 1536 1530 1523 1516 1509 1502 1495 1489 1483 1477 1473 1468 1461 1456 1451 1445 1440
1613 1601 1584 1586 1597 1599 1602 1597 1602 1603 1604 1604 1603 1598 1600 1599 1596 1593 1589 1584 1579 1573 1568 1561 1555 1548 1542 1535 1528 1521 1514 1507 1500 1493 1487 1481 1476 1471 1466 1461 1456 1451 1446 1441
1608 1601 1579 1592 1596 1600 1596 1592 1600 1601 1602 1602 1601 1602 1601 1597 1595 1592 1588 1583 1578 1573 1567 1560 1553 1547 1541 1534 1527 1520 1512 1505 1498 1491 1485 1479 1474 1469 1464 1460 1455 1451 1446 1442
1601 1597 1586 1591 1594 1594 1592 1595 1598 1599 1600 1600 1599 1598 1597 1596 1593 1590 1587 1582 1577 1572 1566 1560 1553 1546 1539 1533 1526 1518 1510 1503 1496 1490 1484 1478 1473 1468 1463 1459 1455 1451 1447 1442
1587 1582 1583 1586 1587 1590 1592 1594 1596 1597 1597 1597 1597 1596 1595 1594 1592 1589 1585 1581 1576 1571 1565 1559 1553 1546 1539 1532 1524 1516 1508 1502 1495 1489 1483 1478 1473 1468 1463 1459 1455 1451 1447 1444
1584 1578 1582 1584 1586 1588 1591 1592 1594 1594 1595 1595 1595 1594 1594 1592 1590 1588 1584 1580 1575 1570 1564 1558 1552 1546 1539 1531 1523 1515 1507 1500 1494 1488 1483 1478 1473 1468 1463 1458 1454 1450 1447 1444
1578 1577 1579 1581 1583 1586 1588 1590 1592 1592 1592 1593 1593 1593 1592 1591 1589 1587 1583 1579 1574 1569 1564 1558 1552 1546 1539 1531 1522 1514 1507 1500 1494 1489 1483 1478 1473 1468 1463 1458 1455 1451 1448 1446
1566 1567 1572 1575 1579 1583 1586 1588 1590 1590 1590 1591 1591 1591 1591 1590 1588 1586 1583 1578 1574 1569 1563 1558 1552 1546 1539 1531 1523 1514 1507 1500 1495 1489 1484 1478 1472 1467 1463 1459 1454 1451 1448 1446
1563 1565 1568 1571 1577 1581 1584 1586 1587 1588 1589 1589 1590 1590 1590 1589 1588 1585 1582 1578 1573 1568 1563 1558 1552 1546 1539 1532 1523 1516 1509 1502 1496 1490 1484 1478 1473 1467 1462 1459 1455 1451 1448 1446
1561 1564 1568 1571 1575 1579 1582 1584 1585 1586 1587 1588 1588 1589 1588 1588 1586 1584 1581 1578 1573 1569 1564 1558 1553 1547 1540 1533 1525 1518 1511 1505 1499 1492 1486 1479 1474 1469 1464 1459 1456 1453 1450 1447
1560 1563 1566 1570 1573 1577 1579 1581 1582 1584 1585 1586 1587 1587 1587 1587 1586 1583 1581 1577 1573 1569 1564 1559 1553 1547 1541 1534 1527 1520 1513 1507 1501 1494 1488 1482 1476 1470 1466 1461 1458 1454 1451 1449
1556 1560 1564 1568 1571 1573 1576 1578 1579 1581 1583 1585 1585 1586 1586 1586 1584 1582 1580 1576 1572 1568 1564 1559 1553 1548 1541 1535 1528 1522 1516 1509 1503 1497 1490 1483 1477 1472 1467 1463 1460 1456 1453 1451
1550 1555 1560 1564 1567 1570 1572 1575 1577 1579 1581 1583 1584 1585 1585 1585 1584 1582 1579 1576 1572 1568 1564 1559 1554 1549 1543 1537 1530 1524 1518 1511 1505 1499 1493 1486 1480 1475 1470 1466 1462 1458 1455 1453
1547 1552 1556 1561 1564 1566 1569 1572 1574 1577 1579 1581 1582 1583 1584 1584 1583 1581 1579 1576 1573 1569 1565 1560 1555 1550 1544 1538 1532 1527 1521 1514 1508 1502 1496 1490 1484 1478 1473 1469 1465 1461 1457 1454
1545 1551 1556 1559 1562 1564 1566 1569 1572 1574 1577 1579 1580 1581 1582 1583 1582 1580 1578 1575 1572 1569 1565 1560 1555 1550 1545 1539 1534 1529 1523 1517 1511 1505 1499 1493 1487 1482 1476 1471 1467 1463 1459 1455
1543 1548 1553 1556 1558 1561 1564 1566 1569 1572 1574 1576 1578 1580 1581 1581 1580 1579 1577 1574 1571 1567 1563 1558 1554 1550 1545 1540 1536 1531 1526 1519 1513 1507 1501 1496 1490 1484 1479 1474 1469 1464 1460 1456
1540 1545 1549 1552 1555 1559 1561 1564 1566 1569 1572 1574 1576 1578 1579 1579 1579 1578 1576 1574 1571 1567 1563 1559 1555 1549 1545 1541 1537 1533 1527 1521 1515 1509 1503 1498 1492 1486 1481 1475 1470 1465 1461 1456
1537 1542 1546 1549 1552 1555 1558 1561 1564 1567 1569 1572 1573 1575 1577 1577 1577 1576 1575 1573 1570 1566 1563 1559 1554 1550 1546 1542 1538 1534 1529 1523 1517 1511 1506 1500 1494 1488 1482 1477 1471 1466 1461 1456
1534 1539 1543 1546 1549 1552 1555 1558 1561 1564 1567 1569 1571 1573 1574 1575 1575 1575 1574 1572 1568 1565 1562 1558 1554 1550 1547 1543 1538 1534 1529 1524 1518 1513 1507 1502 1496 1490 1484 1478 1472 1466 1460 1455
1530 1535 1539 1543 1546 1549 1551 1555 1558 1561 1564 1566 1568 1570 1572 1573 1573 1572 1571 1569 1567 1564 1561 1558 1554 1551 1547 1543 1539 1534 1530 1525 1519 1514 1509 1504 1498 1492 1486 1480 1474 1468 1461 1455
1527 1531 1535 1538 1541 1544 1548 1551 1554 1557 1560 1562 1565 1567 1568 1570 1570 1570 1569 1568 1566 1563 1561 1558 1554 1551 1547 1543 1539 1535 1530 1525 1520 1516 1510 1504 1499 1493 1488 1482 1476 1470 1463 1457
1523 1527 1531 1534 1538 1541 1543 1546 1549 1552 1555 1558 1561 1563 1565 1566 1567 1567 1567 1566 1564 1562 1560 1557 1554 1551 1548 1544 1540 1536 1531 1527 1522 1517 1511 1506 1500 1494 1489 1483 1477 1471 1465 1459
1519 1523 1526 1529 1532 1535 1539 1542 1545 1548 1551 1554 1557 1559 1561 1563 1564 1564 1564 1564 1563 1561 1559 1557 1554 1551 1548 1544 1541 1537 1532 1528 1523 1518 1513 1507 1502 1496 1490 1484 1479 1473 1467 1460